This is the latest recevied weather packets stored in our database for station/object K3RUP-1. If no packets are shown the sender has not sent any weather packets the latest 10 day(s).
| Time | Temp. | Humidity | Pressure | Rain* | Wind** | Luminosity | Snow |
|---|---|---|---|---|---|---|---|
| 1788198021 | 29.44° C | 75% | 1018.5 hPa | 0 mm | - | 406 W/m² | - |
| 1788197719 | 28.33° C | 77% | 1018.7 hPa | 0 mm | - | 677 W/m² | - |
| 1788197416 | 28.89° C | 76% | 1018.5 hPa | 0 mm | - | 456 W/m² | - |
| 1788197111 | 29.44° C | 76% | 1018.8 hPa | 0 mm | - | 497 W/m² | - |
| 1788196806 | 28.89° C | 76% | 1018.8 hPa | 0 mm | - | 716 W/m² | - |
| 1788196501 | 28.89° C | 76% | 1019.2 hPa | 0 mm | - | 554 W/m² | - |
| 1788196198 | 28.33° C | 77% | 1019 hPa | 0 mm | - | 632 W/m² | - |
| 1788195894 | 28.33° C | 79% | 1018.8 hPa | 0 mm | - | 352 W/m² | - |
| 1788195591 | 27.78° C | 78% | 1019 hPa | 0 mm | - | 332 W/m² | - |
| 1788195286 | 28.33° C | 78% | 1019 hPa | 0 mm | - | 286 W/m² | - |
| 1788194983 | 27.78° C | 78% | 1018.9 hPa | 0 mm | - | 258 W/m² | - |
| 1788194679 | 28.33° C | 77% | 1019 hPa | 0 mm | - | 239 W/m² | - |
| 1788194373 | 28.89° C | 76% | 1018.9 hPa | 0 mm | - | 296 W/m² | - |
| 1788194069 | 28.33° C | 77% | 1019 hPa | 0 mm | - | 431 W/m² | - |
| 1788193767 | 28.33° C | 76% | 1018.9 hPa | 0 mm | - | 331 W/m² | - |
| 1788193463 | 28.33° C | 77% | 1019 hPa | 0 mm | - | 639 W/m² | - |
| 1788193160 | 28.33° C | 76% | 1019.2 hPa | 0 mm | - | 600 W/m² | - |
| 1788192853 | 28.33° C | 78% | 1019.1 hPa | 0 mm | - | 602 W/m² | - |
| 1788192548 | 27.78° C | 78% | 1019.2 hPa | 0 mm | - | 602 W/m² | - |
| 1788192243 | 27.78° C | 79% | 1019.2 hPa | 0 mm | - | 583 W/m² | - |
| 1788191937 | 27.22° C | 79% | 1019.2 hPa | 0 mm | - | 195 W/m² | - |
| 1788191637 | 27.22° C | 82% | 1019.1 hPa | 0 mm | - | 208 W/m² | - |
| 1788191333 | 27.22° C | 80% | 1019.1 hPa | 0 mm | - | 385 W/m² | - |
| 1788191029 | 27.22° C | 80% | 1018.8 hPa | 0 mm | - | 590 W/m² | - |
| 1788190727 | 26.67° C | 82% | 1019.2 hPa | 0 mm | - | 611 W/m² | - |
* Rain latest hour (hover to see other rain measurements)
** Current wind speed in m/s (hover to see current wind gust speed)